CW8553 Weather Reports


Display with metric or nautical units.
time (UTC)temp
F
wind
direction
speed
MPH
gust
MPH
rain 1hr
in
rain 24hr
in
rain mn
in
humidity
%
barometer
mb
20260504081536 58 0 0.0 0.0 0.00 0.00 0.00 69 1009.1
20260504044539 68 0 0.0 0.0 0.00 0.00 0.00 51 1009.3
20260504043037 69 0 0.0 0.0 0.00 0.00 0.00 49 1009.3
20260504041542 69 0 0.0 0.0 0.00 0.00 0.00 49 1009.2
20260504040041 70 0 0.0 0.0 0.00 0.00 0.00 50 1009.2
20260504034544 70 0 0.0 0.0 0.00 0.00 0.00 51 1009.0
20260504033039 71 0 0.0 0.0 0.00 0.00 0.00 50 1009.1
20260504031542 72 0 0.0 0.0 0.00 0.00 0.00 48 1009.1
20260504030038 73 0 0.0 0.0 0.00 0.00 0.00 47 1009.0
20260504024540 74 0 0.0 0.0 0.00 0.00 0.00 46 1009.1
20260504023036 75 0 0.0 0.0 0.00 0.00 0.00 45 1009.0
20260504021541 75 0 0.0 0.0 0.00 0.00 0.00 44 1009.0
20260504020042 76 0 0.0 0.0 0.00 0.00 0.00 44 1009.1
20260504014540 77 0 0.0 0.0 0.00 0.00 0.00 44 1009.2
20260504013053 78 0 0.0 0.0 0.00 0.00 0.00 43 1009.3
20260504011536 78 0 0.0 0.0 0.00 0.00 0.00 44 1009.3
20260504010043 79 0 0.0 0.0 0.00 0.00 0.00 42 1009.4
20260504004540 79 0 0.0 0.0 0.00 0.00 0.00 44 1009.6
20260504003039 80 0 0.0 0.0 0.00 0.00 0.00 43 1009.7
20260504001540 80 0 0.0 0.0 0.00 0.00 0.00 39 1009.8
20260504000039 80 0 0.0 0.0 0.00 0.00 0.00 40 1009.9
20260503234535 81 0 0.0 0.0 0.00 0.00 0.00 42 1009.9
20260503233040 81 0 0.0 0.0 0.00 0.00 0.00 44 1010.2
20260503231538 80 0 0.0 0.0 0.00 0.00 0.00 42 1010.2
20260503230041 79 0 0.0 0.0 0.00 0.00 0.00 44 1010.6
20260503224537 80 0 0.0 0.0 0.00 0.00 0.00 43 1010.8
20260503223036 80 0 0.0 0.0 0.00 0.00 0.00 44 1011.0
20260503221551 79 0 0.0 0.0 0.00 0.00 0.00 44 1011.2
20260503220040 78 0 0.0 0.0 0.00 0.00 0.00 46 1011.3
20260503214541 78 0 0.0 0.0 0.00 0.00 0.00 45 1011.5
20260503213043 78 0 0.0 0.0 0.00 0.00 0.00 46 1011.5
20260503211535 77 0 0.0 0.0 0.00 0.00 0.00 48 1011.8
20260503210041 78 0 0.0 0.0 0.00 0.00 0.00 45 1011.9
20260503204541 77 0 0.0 0.0 0.00 0.00 0.00 47 1012.0
20260503203041 78 0 0.0 0.0 0.00 0.00 0.00 49 1012.1
20260503201537 76 0 0.0 0.0 0.00 0.00 0.00 50 1012.3
20260503200037 76 0 0.0 0.0 0.00 0.00 0.00 51 1012.3
20260503194543 74 0 0.0 0.0 0.00 0.00 0.00 53 1012.5
20260503193046 74 0 0.0 0.0 0.00 0.00 0.00 52 1012.7
20260503191603 74 0 0.0 0.0 0.00 0.00 0.00 54 1012.8
20260503190038 75 0 0.0 0.0 0.00 0.00 0.00 54 1013.1
20260503184537 74 0 0.0 0.0 0.00 0.00 0.00 53 1013.2
20260503183040 74 0 0.0 0.0 0.00 0.00 0.00 53 1013.5
20260503181547 73 0 0.0 0.0 0.00 0.00 0.00 56 1013.5
20260503180041 72 0 0.0 0.0 0.00 0.00 0.00 57 1013.7
20260503174545 72 0 0.0 0.0 0.00 0.00 0.00 56 1013.8
20260503173038 72 0 0.0 0.0 0.00 0.00 0.00 60 1013.9
20260503171539 71 0 0.0 0.0 0.00 0.00 0.00 59 1013.9